Hourly Data Report for November 24, 2020

L'ASSOMPTION
QUEBEC
Current Station Operator: ECCC - MSC

45°48'34.000" N
73°26'05.000" W
21.00 m
7014160
71524
WEW

Download Data

Hourly Data (November 2020)
Hourly Data Report for November 24, 2020
TIME
LST
Temp Definition
°C
Dew Point Definition
°C
Rel Hum Definition
%
Precip. Amount Definition
mm

Wind Dir Definition
10's deg

Wind Spd Definition
km/h
Visibility Definition
km
Stn Press Definition
kPa
Hmdx Definition


Wind Chill Definition


Weather Definition


00:00 0.2 -5.1 68 0.0 30 17   101.66     LegendNANA
01:00 0.0 -5.2 68 0.0 29 9   101.71   -3 LegendNANA
02:00 -0.2 -5.5 68 0.0 29 16   101.79   -5 LegendNANA
03:00 -2.3 -8.6 62 0.0 33 23   101.94   -9 LegendNANA
04:00 -2.6 -8.2 66 0.0 32 17   102.03   -8 LegendNANA
05:00 -3.2 -9.6 61 0.0 32 20   102.15   -9 LegendNANA
06:00 -4.0 -11.3 57 0.0 32 25   102.30   -11 LegendNANA
07:00 -4.9 -11.6 59 0.0 30 17   102.44   -11 LegendNANA
08:00 -5.2 -11.9 60 0.0 29 12   102.56   -10 LegendNANA
09:00 -4.6 -11.5 59 0.0 31 16   102.64   -10 LegendNANA
10:00 -4.9 -12.4 56 0.0 33 19   102.72   -11 LegendNANA
11:00 -4.6 -13.0 52 0.0 32 14   102.70   -10 LegendNANA
12:00 -3.8 -12.2 52 0.0 30 13   102.71   -9 LegendNANA
13:00 -3.2 -12.7 48 0.0 32 13   102.75   -8 LegendNANA
14:00 -3.0 -12.6 47 0.0 32 12   102.79   -7 LegendNANA
15:00 -2.8 -12.3 48 0.0 33 7   102.81   -6 LegendNANA
16:00 -3.8 -11.8 54 0.0 5 7   102.90   -7 LegendNANA
17:00 -4.6 -12.0 56 0.0 2 4   102.97   -6 LegendNANA
18:00 -5.0 -12.2 57 0.0 1 6   102.98   -8 LegendNANA
19:00 -6.0 -12.2 61 0.0 1 4   103.03   -8 LegendNANA
20:00 -6.4 -12.2 63 0.0 2 6   102.97   -9 LegendNANA
21:00 -6.7 -12.0 66 0.0 3 4   103.00   -9 LegendNANA
22:00 -7.1 -11.8 69 0.0 4 3   102.96   -9 LegendNANA
23:00 -6.7 -11.8 67 0.0 6 5   102.94   -9 LegendNANA

Notes on Data Quality.

Legend

  • E = Estimated
  • M = Missing
  • NA = Not Available*
  • [empty] = Indicates an unobserved value
Date modified: